Mt. Soledad (578) Station Data

Red Flag Warning: No
Fire Weather Zone: 243
SDGE Region: Beach Cities
Lat/Lon: 32.814/-117.241

Observations

Time Wind Speed/Gust Temp(F) RH Fuel Moist Fuel Temp(F) Dewpt(F) Tmax(F) Tmin(F) Accum Precip 10-min Precip SL Press(mb)
6/27 5:00pm 297 4 G 8 73° 64% 8.7% 78.76° 60° 79.4° 62.3° - - 1013.0
6/27 4:50pm 279 4 G 7 72° 63% 8.7% 78.56° 59° 79.4° 62.3° - - 1014.0
6/27 4:40pm 281 4 G 8 72° 63% 8.8% 78.9° 59° 79.4° 62.3° - - 1014.0
6/27 4:30pm 298 5 G 9 72° 65% 8.8% 79.12° 60° 79.4° 62.3° - - 1014.0
6/27 4:20pm 286 4 G 8 73° 68% 8.9% 79.81° 61° 79.4° 62.3° - - 1014.0
6/27 4:10pm 277 5 G 9 73° 68% 8.9% 79.49° 62° 79.4° 62.3° - - 1014.0
6/27 4:00pm 244 5 G 9 73° 70% 8.9% 79.61° 62° 79.4° 62.3° - - 1014.0
6/27 3:50pm 223 5 G 11 73° 69% 8.9% 80.3° 62° 79.4° 62.3° - - 1014.0
6/27 3:40pm 225 5 G 9 74° 66% 8.9% 80.9° 62° 79.4° 62.3° - - 1014.0
6/27 3:30pm 219 5 G 9 73° 64% 8.9% 80.8° 61° 79.4° 62.3° - - 1014.0
6/27 3:20pm 241 5 G 10 73° 63% 8.9% 81.3° 60° 79.4° 62.3° - - 1014.0
6/27 3:10pm 228 4 G 11 74° 61% 9% 81.8° 60° 79.4° 62.3° - - 1014.0
6/27 3:00pm 244 4 G 10 74° 64% 9.1% 81.5° 61° 79.4° 62.3° - - 1014.0
6/27 2:50pm 245 5 G 9 73° 68% 9.2% 81.4° 61° 79.4° 62.3° - - 1014.0
6/27 2:40pm 252 5 G 10 72° 69% 9.2% 80.4° 61° 79.4° 62.3° - - 1015.0
6/27 2:30pm 229 5 G 11 72° 70% 9.2% 81.3° 62° 79.4° 62.3° - - 1015.0
6/27 2:20pm 248 6 G 10 73° 69% 9.2% 83.7° 62° 79.4° 62.3° - - 1015.0
6/27 2:10pm 255 5 G 10 73° 68% 9.3% 85.9° 62° 79.4° 62.3° - - 1015.0
6/27 2:00pm 244 5 G 11 72° 72% 9.3% 85.4° 63° 79.4° 62.3° - - 1015.0
6/27 1:50pm 233 6 G 11 73° 72% 9.4% 84.2° 63° 79.4° 62.3° - - 1015.0
6/27 1:40pm 230 6 G 12 75° 69% 9.3% 84.9° 64° 79.4° 62.3° - - 1015.0
6/27 1:30pm 237 4 G 10 76° 66% 9.4% 86.5° 64° 79.4° 62.3° - - 1015.0
6/27 1:20pm 285 5 G 8 76° 64% 9.3% 86.9° 63° 79.4° 62.3° - - 1015.0
6/27 1:10pm 269 5 G 10 75° 67% 9.3% 82.7° 63° 79.4° 62.3° - - 1015.0
6/27 1:00pm 237 6 G 11 75° 68% 9.3% 85.3° 64° 79.4° 62.3° - - 1015.0
6/27 12:50pm 236 6 G 12 75° 65% 9.2% 88.7° 63° 79.4° 62.3° - - 1015.0
6/27 12:40pm 246 5 G 10 77° 62% 9.3% 89.5° 63° 79.4° 62.3° - - 1015.0
6/27 12:30pm 273 4 G 8 77° 61% 9.4% 87.7° 63° 79.4° 62.3° - - 1015.0
6/27 12:20pm 253 5 G 9 78° 57% 9.4% 85.5° 61° 79.4° 62.3° - - 1014.0
6/27 12:10pm 273 5 G 10 78° 58% 9.5% 85.9° 62° 79.4° 62.3° - - 1014.0
6/27 12:00pm 258 4 G 8 78° 56% 9.6% 87.8° 62° 79.1° 62.3° - - 1014.0
6/27 11:50am 244 4 G 9 78° 60% 9.7% 88.8° 63° 78.7° 62.3° - - 1014.0
6/27 11:40am 234 5 G 9 77° 65% 9.8% 87.9° 64° 77.6° 62.3° - - 1014.0
6/27 11:30am 230 5 G 9 76° 68% 9.9% 88.1° 64° 76.8° 62.3° - - 1015.0
6/27 11:20am 227 5 G 10 75° 68% 9.9% 87.9° 64° 76.8° 62.3° - - 1015.0
6/27 11:10am 216 4 G 9 76° 65% 10% 89.2° 63° 76.8° 62.3° - - 1015.0
6/27 11:00am 229 4 G 8 75° 66% 10.1% 90.7° 63° 76.8° 62.3° - - 1015.0
6/27 10:50am 231 5 G 9 75° 66% 10.1% 91.1° 63° 76.8° 62.3° - - 1015.0
6/27 10:40am 223 3 G 7 76° 64% 10.2% 92.7° 63° 76.8° 62.3° - - 1015.0
6/27 10:30am 229 5 G 8 75° 65% 10.2% 90.8° 62° 76.1° 62.3° - - 1015.0
6/27 10:20am 220 4 G 7 75° 64% 10.4% 91.6° 62° 76° 62.3° - - 1014.0
6/27 10:10am 232 4 G 7 75° 63% 10.5% 91.4° 62° 76° 62.3° - - 1014.0
6/27 10:00am 211 3 G 5 75° 63% 10.6% 92.6° 62° 76° 62.3° - - 1014.0
6/27 9:50am 227 3 G 6 75° 66% 10.9% 90.9° 62° 75.6° 62.3° - - 1014.0
6/27 9:40am 215 3 G 6 74° 65% 11% 90.4° 62° 75.1° 62.3° - - 1014.0
6/27 9:30am 233 3 G 5 73° 71% 11.1% 89.5° 63° 74.6° 62.3° - - 1015.0
6/27 9:20am 219 3 G 6 74° 72% 11.2% 89.3° 64° 74.6° 62.3° - - 1015.0
6/27 9:10am 230 3 G 5 73° 74% 11.4% 88.6° 64° 74° 62.3° - - 1014.0
6/27 9:00am 220 3 G 5 73° 73% 11.4% 89.1° 64° 73.9° 62.3° - - 1014.0
6/27 8:50am 222 2 G 4 72° 76% 11.6% 90.4° 64° 73.1° 62.3° - - 1015.0
6/27 8:40am 235 2 G 4 71° 78% 11.7% 89.8° 64° 72.5° 62.3° - - 1015.0
6/27 8:30am 235 2 G 5 71° 77% 11.7% 87.1° 64° 72.5° 62.3° - - 1015.0
6/27 8:20am 223 2 G 3 72° 75% 11.8% 87.5° 64° 72.5° 62.3° - - 1014.0
6/27 8:10am 154 2 G 3 72° 73% 11.9% 87.6° 63° 72.3° 62.3° - - 1014.0
6/27 8:00am 156 1 G 2 71° 73% 12% 84.5° 62° 72.1° 62.3° - - 1014.0
6/27 7:50am 112 1 G 3 70° 76% 12.2% 86.2° 62° 71.9° 62.3° - - 1014.0
6/27 7:40am 133 1 G 3 69° 78% 12.4% 86.4° 62° 71.9° 62.3° - - 1014.0
6/27 7:30am 115 1 G 2 69° 79% 12.6% 86.5° 62° 71.9° 62.3° - - 1014.0
6/27 7:20am 91 1 G 2 68° 81% 12.8% 82.9° 62° 71.9° 62.3° - - 1014.0
6/27 7:10am 111 1 G 2 67° 82% 13% 81.4° 62° 71.9° 62.3° - - 1014.0
6/27 7:00am 115 1 G 3 67° 82% 13.2% 79.02° 62° 71.9° 62.3° - - 1014.0
6/27 6:50am 314 0 G 1 66° 85% 13.3% 73.68° 62° 71.9° 62.3° - - 1014.0
6/27 6:40am 338 0 G 1 65° 88% 13.3% 67.62° 62° 71.9° 62.3° - - 1014.0
6/27 6:30am 271 0 G 1 64° 89% 13.2% 63.28° 61° 71.9° 62.3° - - 1014.0
6/27 6:20am 301 0 G 1 64° 90% 13% 61.56° 61° 71.9° 62.3° - - 1014.0
6/27 6:10am 134 0 G 1 63° 90% 12.9% 60.83° 60° 71.9° 62.3° - - 1014.0
6/27 6:00am 321 1 G 2 63° 90% 12.8% 60.91° 60° 71.9° 62.3° - - 1014.0
6/27 5:50am 328 1 G 2 63° 90% 12.8% 61.32° 60° 71.9° 62.3° - - 1014.0
6/27 5:40am 303 1 G 2 64° 90% 12.7% 60.95° 61° 71.9° 62.3° - - 1014.0
6/27 5:30am 331 1 G 3 63° 90% 12.5% 60.66° 60° 71.9° 62.3° - - 1014.0
6/27 5:20am 295 1 G 2 63° 90% 12.4% 60.56° 60° 71.9° 62.3° - - 1014.0
6/27 5:10am 317 1 G 2 64° 90% 12.2% 60.54° 60° 71.9° 62.3° - - 1014.0
6/27 5:00am 302 1 G 2 63° 90% 12.2% 60.67° 60° 71.9° 62.3° - - 1014.0
6/27 4:50am 310 1 G 2 63° 91% 12.1% 60.79° 60° 71.9° 62.3° - - 1014.0
6/27 4:40am 340 2 G 3 63° 91% 12% 60.69° 61° 71.9° 62.3° - - 1014.0
6/27 4:30am 329 1 G 2 63° 91% 11.9% 60.69° 60° 71.9° 62.7° - - 1014.0
6/27 4:20am 130 0 G 1 63° 90% 11.6% 60.32° 61° 71.9° 62.8° - - 1014.0
6/27 4:10am 286 0 G 1 64° 90% 11.7% 61.26° 60° 71.9° 62.9° - - 1014.0
6/27 4:00am 193 1 G 2 64° 88% 11.4% 60.87° 60° 71.9° 62.9° - - 1014.0
6/27 3:50am 256 1 G 3 64° 86% 11.3% 61.65° 60° 71.9° 62.9° - - 1014.0
6/27 3:40am 303 2 G 3 64° 87% 11.4% 62.15° 60° 71.9° 62.9° - - 1013.0
6/27 3:30am 259 0 G 1 63° 87% 11.2% 61.12° 59° 71.9° 62.9° - - 1013.0
6/27 3:20am 51 1 G 2 63° 86% 11% 60.93° 59° 71.9° 63° - - 1013.0
6/27 3:10am 30 1 G 3 64° 83% 11% 61.28° 59° 71.9° 63.1° - - 1013.0
6/27 3:00am 52 0 G 1 65° 79% 10.8% 61.49° 58° 71.9° 64.5° - - 1014.0
6/27 2:50am 61 0 G 2 66° 79% 10.7% 61.79° 59° 71.9° 64.5° - - 1013.0
6/27 2:40am 310 2 G 4 66° 77% 10.7% 62.44° 58° 71.9° 64.5° - - 1013.0
6/27 2:30am 301 1 G 2 65° 74% 10.6% 61.65° 57° 71.9° 64.5° - - 1014.0
6/27 2:20am 294 1 G 2 65° 73% 10.6% 61.78° 56° 71.9° 64.5° - - 1014.0
6/27 2:10am 308 1 G 2 65° 76% 10.5% 61.29° 57° 71.9° 64.5° - - 1014.0
6/27 2:00am 348 0 G 2 65° 83% 10.5% 61.6° 60° 71.9° 64.6° - - 1014.0
6/27 1:50am 13 0 G 1 65° 85% 10.4% 61.99° 61° 71.9° 65° - - 1014.0
6/27 1:40am 64 0 G 1 66° 82% 10.3% 62.5° 60° 71.9° 65.2° - - 1014.0
6/27 1:30am 75 1 G 2 67° 80% 10.1% 62.5° 60° 71.9° 65.2° - - 1014.0
6/27 1:20am 339 1 G 2 66° 73% 9.9% 62.34° 58° 71.9° 65.2° - - 1014.0
6/27 1:10am 4 1 G 4 66° 79% 9.9% 63.21° 59° 71.9° 65.2° - - 1014.0
6/27 1:00am 74 1 G 4 67° 70% 9.8% 63.11° 57° 71.9° 66.5° - - 1014.0
6/27 12:50am 80 1 G 2 68° 67% 9.7% 63.59° 57° 71.9° 67.5° - - 1014.0
6/27 12:40am 70 1 G 2 69° 59% 9.6% 64.23° 54° 71.9° 67.8° - - 1014.0
6/27 12:30am 109 0 G 0 70° 55% 9.6% 64.32° 53° 71.9° 69.4° - - 1014.0
6/27 12:20am 359 1 G 3 71° 52% 9.6% 65.09° 53° 71.9° 70.4° - - 1014.0
6/27 12:10am 3 1 G 2 71° 51% 9.6% 65.39° 52° 71.9° 70.6° - - 1015.0
6/27 12:00am 39 0 G 2 71° 49% 9.5% 64.8° 51° 85.3° 61.7° - - 1015.0
6/26 11:50pm 35 0 G 2 71° 49% 9.5% 65.17° 51° 85.3° 61.7° - - 1015.0
6/26 11:40pm 49 0 G 1 71° 50% 9.5% 65.02° 51° 85.3° 61.7° - - 1015.0
6/26 11:30pm 95 0 G 1 72° 50% 9.5% 65.29° 52° 85.3° 61.7° - - 1015.0
6/26 11:20pm 18 0 G 1 73° 48% 9.6% 66.25° 52° 85.3° 61.7° - - 1015.0
6/26 11:10pm 167 0 G 2 73° 48% 9.6% 67.4° 52° 85.3° 61.7° - - 1015.0
6/26 11:00pm 17 3 G 5 73° 50% 9.7% 68.28° 53° 85.3° 61.7° - - 1015.0
6/26 10:50pm 3 5 G 8 73° 51% 9.8% 68.88° 54° 85.3° 61.7° - - 1015.0
6/26 10:40pm 1 5 G 8 73° 53% 9.8% 67.9° 55° 85.3° 61.7° - - 1015.0
6/26 10:30pm 15 4 G 7 71° 67% 9.9% 66.84° 59° 85.3° 61.7° - - 1015.0
6/26 10:20pm 29 4 G 6 70° 73% 9.9% 65.95° 61° 85.3° 61.7° - - 1015.0
6/26 10:10pm 22 4 G 5 70° 72% 9.8% 65.64° 60° 85.3° 61.7° - - 1015.0
6/26 10:00pm 31 4 G 5 68° 74% 9.6% 64.09° 60° 85.3° 61.7° - - 1015.0
6/26 9:50pm 47 3 G 4 67° 78% 9.6% 64.43° 60° 85.3° 61.7° - - 1015.0
6/26 9:40pm 98 1 G 3 68° 79% 9.5% 64.44° 61° 85.3° 61.7° - - 1015.0
6/26 9:30pm 84 1 G 2 68° 80% 9.3% 64.68° 62° 85.3° 61.7° - - 1015.0
6/26 9:20pm 92 0 G 2 68° 82% 9.3% 65.6° 63° 85.3° 61.7° - - 1015.0
6/26 9:10pm 61 1 G 2 69° 82% 9.2% 66.22° 63° 85.3° 61.7° - - 1015.0
6/26 9:00pm 29 2 G 4 69° 84% 9.1% 67.21° 64° 85.3° 61.7° - - 1015.0
6/26 8:50pm 0 0 G 0 69° 83% 8.9% 66.9° 64° 85.3° 61.7° - - 1015.0
6/26 8:40pm 244 0 G 1 69° 82% 8.8% 67.69° 64° 85.3° 61.7° - - 1014.0
6/26 8:30pm 106 0 G 1 70° 81% 8.6% 68.68° 64° 85.3° 61.7° - - 1014.0
6/26 8:20pm 231 1 G 2 70° 82% 8.7% 71.86° 64° 85.3° 61.7° - - 1014.0
6/26 8:10pm 259 1 G 3 70° 82% 8.6% 72.25° 65° 85.3° 61.7° - - 1014.0
6/26 8:00pm 252 2 G 4 71° 81% 8.4% 73.11° 65° 85.3° 61.7° - - 1014.0
6/26 7:50pm 242 2 G 4 72° 77% 8.3% 74.17° 65° 85.3° 61.7° - - 1014.0
6/26 7:40pm 248 2 G 3 73° 75% 8.1% 75.11° 65° 85.3° 61.7° - - 1014.0
6/26 7:30pm 240 2 G 3 74° 73% 8% 76.13° 65° 85.3° 61.7° - - 1014.0
6/26 7:20pm 204 2 G 4 75° 68% 7.8% 77.79° 64° 85.3° 61.7° - - 1014.0
6/26 7:10pm 158 2 G 4 78° 53% 7.8% 81° 59° 85.3° 61.7° - - 1014.0
6/26 7:00pm 248 2 G 5 79° 41% 7.8% 82.4° 54° 85.3° 61.7° - - 1014.0
6/26 6:50pm 260 3 G 5 79° 41% 7.8% 82.5° 54° 85.3° 61.7° - - 1014.0
6/26 6:40pm 263 4 G 7 79° 41% 7.8% 82.8° 54° 85.3° 61.7° - - 1014.0
6/26 6:30pm 274 4 G 8 80° 41% 7.9% 83.4° 54° 85.3° 61.7° - - 1014.0
6/26 6:20pm 287 3 G 6 80° 41% 7.9% 83.5° 54° 85.3° 61.7° - - 1014.0
6/26 6:10pm 312 5 G 9 80° 40% 7.9% 83.6° 53° 85.3° 61.7° - - 1014.0
6/26 6:00pm 334 6 G 9 80° 40% 7.9% 83.4° 53° 85.3° 61.7° - - 1014.0
6/26 5:50pm 337 5 G 8 80° 41% 8% 84.1° 54° 85.3° 61.7° - - 1014.0
6/26 5:40pm 335 6 G 9 81° 37% 8% 84.6° 53° 85.3° 61.7° - - 1014.0
6/26 5:30pm 329 6 G 9 81° 34% 8% 85.3° 51° 85.3° 61.7° - - 1014.0
6/26 5:20pm 331 6 G 12 82° 34% 8.1% 85.6° 51° 85.3° 61.7° - - 1014.0
6/26 5:10pm 339 5 G 9 82° 36% 8.2% 86.2° 53° 85.3° 61.7° - - 1015.0
6/26 5:00pm 342 5 G 9 82° 41% 8.3% 86.5° 55° 85.3° 61.7° - - 1015.0
6/26 4:50pm 332 6 G 11 80° 43% 8.4% 85.7° 55° 85.3° 61.7° - - 1015.0
6/26 4:40pm 331 8 G 12 80° 43% 8.3% 84.3° 55° 85.3° 61.7° - - 1015.0
6/26 4:30pm 312 5 G 9 82° 38% 8.4% 86.2° 54° 85.3° 61.7° - - 1015.0
6/26 4:20pm 307 5 G 12 83° 34% 8.5% 87.7° 52° 85.3° 61.7° - - 1015.0
6/26 4:10pm 311 7 G 11 82° 34% 8.6% 87.5° 51° 85.3° 61.7° - - 1015.0
6/26 4:00pm 320 5 G 9 83° 37% 8.7% 88.1° 54° 85.3° 61.7° - - 1015.0
6/26 3:50pm 300 5 G 10 82° 40% 8.8% 87.9° 55° 85.3° 61.7° - - 1015.0
6/26 3:40pm 312 6 G 9 82° 39% 8.9% 87.7° 54° 85.3° 61.7° - - 1015.0
6/26 3:30pm 307 6 G 10 83° 36% 9.1% 88° 53° 85.3° 61.7° - - 1015.0
6/26 3:20pm 312 5 G 8 84° 34% 9.2% 89.6° 53° 85.3° 61.7° - - 1015.0
6/26 3:10pm 316 5 G 12 84° 36% 9.4% 89.7° 54° 84.7° 61.7° - - 1015.0
6/26 3:00pm 291 5 G 10 83° 38% 9.7% 89.4° 55° 84.6° 61.7° - - 1015.0
6/26 2:50pm 273 5 G 9 81° 49% 9.9% 88.3° 60° 83.4° 61.7° - - 1015.0
6/26 2:40pm 231 6 G 10 78° 63% 10.1% 85.9° 65° 79.1° 61.7° - - 1015.0
6/26 2:30pm 227 5 G 9 78° 64% 10.2% 85.9° 65° 79.1° 61.7° - - 1015.0
6/26 2:20pm 230 5 G 9 75° 69% 10.3% 87° 65° 77.1° 61.7° - - 1016.0
6/26 2:10pm 229 7 G 11 74° 71% 10.4% 86.3° 64° 75.3° 61.7° - - 1016.0
6/26 2:00pm 234 6 G 10 75° 69% 10.4% 86.8° 64° 75.3° 61.7° - - 1016.0
6/26 1:50pm 234 5 G 9 73° 70% 10.5% 85.8° 63° 74.5° 61.7° - - 1016.0
6/26 1:40pm 230 3 G 6 73° 70% 10.6% 85.6° 63° 74.5° 61.7° - - 1016.0
6/26 1:30pm 234 4 G 7 72° 73% 10.6% 85.1° 63° 73.4° 61.7° - - 1016.0
6/26 1:20pm 231 3 G 6 71° 75% 10.6% 84.7° 63° 73.4° 61.7° - - 1016.0
6/26 1:10pm 233 3 G 6 72° 74% 10.6% 79.99° 63° 73.4° 61.7° - - 1016.0
6/26 1:00pm 244 3 G 6 70° 77% 10.6% 83.4° 63° 73.4° 61.7° - - 1016.0
6/26 12:50pm 238 4 G 8 70° 79% 10.5% 83.6° 63° 73.4° 61.7° - - 1016.0
6/26 12:40pm 229 4 G 8 70° 77% 10.6% 82.9° 63° 73.4° 61.7° - - 1016.0
6/26 12:30pm 221 4 G 7 71° 76% 10.6% 81.1° 63° 73.4° 61.7° - - 1016.0
6/26 12:20pm 227 3 G 6 70° 76% 10.7% 80.7° 63° 73.4° 61.7° - - 1016.0
6/26 12:10pm 226 4 G 7 70° 78% 10.8% 79.92° 62° 73.4° 61.7° - - 1016.0
6/26 12:00pm 235 4 G 8 70° 77% 10.9% 81.2° 62° 73.4° 61.7° - - 1017.0
6/26 11:50am 226 4 G 7 70° 78% 11% 82° 62° 73.4° 61.7° - - 1017.0
6/26 11:40am 231 4 G 7 69° 80% 11% 82.7° 62° 73.4° 61.7° - - 1017.0
6/26 11:30am 234 4 G 8 69° 81% 11% 81.9° 62° 73.4° 61.7° - - 1017.0
6/26 11:20am 237 4 G 7 67° 83% 11.1% 81.6° 62° 73.4° 61.7° - - 1017.0
6/26 11:10am 235 4 G 7 68° 82% 11.2% 82.5° 62° 73.4° 61.7° - - 1017.0
6/26 11:00am 230 4 G 7 67° 83% 11.3% 83.5° 62° 73.4° 61.7° - - 1017.0
6/26 10:50am 230 4 G 7 66° 85% 11.3% 83.1° 62° 73.4° 61.7° - - 1017.0
6/26 10:40am 233 5 G 10 67° 84% 11.3% 82.5° 62° 73.4° 61.7° - - 1017.0
6/26 10:30am 230 5 G 8 68° 83% 11.4% 83.8° 63° 73.4° 61.7° - - 1016.0
6/26 10:20am 226 4 G 9 69° 81% 11.4% 85.8° 63° 73.4° 61.7° - - 1016.0
6/26 10:10am 228 3 G 6 69° 79% 11.5% 86.3° 63° 73.4° 61.7° - - 1016.0
6/26 10:00am 237 3 G 6 69° 81% 11.6% 85.1° 62° 73.4° 61.7° - - 1016.0
6/26 9:50am 224 4 G 7 69° 78% 11.7% 84.2° 62° 73.4° 61.7° - - 1016.0
6/26 9:40am 231 4 G 7 71° 74% 11.7% 86.5° 63° 73.4° 61.7° - - 1016.0
6/26 9:30am 202 3 G 5 72° 73% 11.9% 87.5° 63° 73.4° 61.7° - - 1016.0
6/26 9:20am 204 3 G 6 72° 73% 12% 88° 63° 73.4° 61.7° - - 1016.0
6/26 9:10am 168 3 G 6 72° 73% 12.1% 87.2° 63° 73.4° 61.7° - - 1016.0
6/26 9:00am 152 3 G 5 72° 73% 12.3% 86.9° 63° 73.4° 61.7° - - 1016.0
6/26 8:50am 151 3 G 5 73° 74% 12.5% 88.3° 64° 73.4° 61.7° - - 1016.0
6/26 8:40am 138 3 G 6 72° 74% 12.6% 87.4° 64° 73.2° 61.7° - - 1015.0
6/26 8:30am 130 2 G 4 72° 76% 12.8% 87.1° 64° 72.6° 61.7° - - 1015.0
6/26 8:20am 126 2 G 4 72° 76% 13% 88.3° 64° 72.6° 61.7° - - 1015.0
6/26 8:10am 101 3 G 5 72° 75% 13.2% 87.7° 64° 72.6° 61.7° - - 1015.0
6/26 8:00am 102 2 G 4 71° 77% 13.3% 84.2° 63° 71.6° 61.7° - - 1015.0
6/26 7:50am 106 2 G 4 70° 79% 13.5% 84.5° 63° 70.5° 61.7° - - 1015.0
6/26 7:40am 101 3 G 4 69° 80% 13.7% 83.6° 62° 69.5° 61.7° - - 1015.0
6/26 7:30am 89 2 G 4 68° 80% 14% 84° 62° 69.3° 61.7° - - 1015.0
6/26 7:20am 110 2 G 4 68° 81% 14.3% 81.9° 62° 69.3° 61.7° - - 1015.0
6/26 7:10am 108 1 G 3 69° 80% 14.6% 79.8° 62° 69.3° 61.7° - - 1014.0
6/26 7:00am 99 0 G 2 68° 78% 14.8% 78° 61° 69° 61.7° - - 1014.0
6/26 6:50am 282 1 G 3 67° 79% 14.9% 72.33° 61° 68.6° 61.7° - - 1014.0
6/26 6:40am 306 2 G 5 66° 83% 15% 67.35° 61° 67.8° 61.7° - - 1014.0
6/26 6:30am 323 3 G 5 64° 91% 15% 63.9° 61° 65.4° 61.7° - - 1014.0
6/26 6:20am 4 2 G 4 62° 92% 14.9% 61.24° 60° 65.4° 61.7° - - 1015.0
6/26 6:10am 72 1 G 3 62° 91% 14.8% 60.35° 59° 65.4° 61.7° - - 1015.0
6/26 6:00am 134 1 G 2 63° 88% 14.7% 60.37° 60° 65.4° 62° - - 1015.0